DW7857 Weather Reports


Display with metric or nautical units.
time (UTC)temp
F
wind
direction
speed
MPH
gust
MPH
rain 1hr
in
rain 24hr
in
rain mn
in
humidity
%
barometer
mb
20200401015504 33 0 0.0 0.0 0.00 0.00 0.00 72 1007.5
20200401015003 34 0 0.0 0.0 0.00 0.00 0.00 72 1007.7
20200401014505 34 0 0.0 1.0 0.00 0.00 0.00 72 1007.4
20200401014004 35 0 0.0 1.0 0.00 0.00 0.00 71 1007.7
20200401013504 35 66 0.0 2.0 0.00 0.00 0.00 71 1007.7
20200401013005 35 56 1.0 2.0 0.00 0.00 0.00 71 1007.9
20200401012504 35 53 0.0 2.0 0.00 0.00 0.00 71 1007.8
20200401012003 35 29 0.0 1.0 0.00 0.00 0.00 71 1007.6
20200401011505 36 37 0.0 2.0 0.00 0.00 0.00 71 1007.9
20200401011003 36 51 1.0 2.0 0.00 0.00 0.00 72 1008.1
20200401010504 36 53 2.0 3.0 0.00 0.00 0.00 72 1007.9
20200401010005 36 55 2.0 3.0 0.00 0.00 0.00 72 1007.9
20200401005503 36 58 2.0 4.0 0.00 0.00 0.00 72 1008.1
20200401005004 36 48 1.0 4.0 0.00 0.00 0.00 72 1008.0
20200401004505 36 46 1.0 3.0 0.00 0.00 0.00 72 1007.9
20200401004004 36 48 1.0 3.0 0.00 0.00 0.00 72 1007.9
20200401003503 36 43 1.0 3.0 0.00 0.00 0.00 72 1008.1
20200401003005 36 50 1.0 3.0 0.00 0.00 0.00 72 1008.1
20200401002504 36 54 2.0 3.0 0.00 0.00 0.00 72 1008.1
20200401002004 36 47 1.0 3.0 0.00 0.00 0.00 72 1008.2
20200401001505 36 49 1.0 2.0 0.00 0.00 0.00 71 1008.0
20200401001004 35 0 0.0 1.0 0.00 0.00 0.00 71 1007.8
20200401000503 35 0 0.0 1.0 0.00 0.00 0.00 71 1008.1
20200401000007 36 0 0.0 0.0 0.00 0.00 0.00 71 1008.3
20200331235503 36 0 0.0 1.0 0.00 0.00 0.00 70 1008.2
20200331235004 36 0 0.0 1.0 0.00 0.00 0.00 70 1008.0
20200331234505 36 0 0.0 1.0 0.00 0.00 0.00 70 1008.4
20200331234004 36 119 0.0 2.0 0.00 0.00 0.00 70 1008.2
20200331233504 37 88 1.0 2.0 0.00 0.00 0.00 69 1008.2
20200331233006 37 70 1.0 3.0 0.00 0.00 0.00 69 1008.5
20200331232503 37 66 1.0 3.0 0.00 0.00 0.00 68 1008.4
20200331232004 37 62 0.0 2.0 0.00 0.00 0.00 68 1008.7
20200331231504 37 66 0.0 2.0 0.00 0.00 0.00 68 1008.5
20200331231003 37 40 1.0 2.0 0.00 0.00 0.00 67 1008.7
20200331230504 37 20 1.0 2.0 0.00 0.00 0.00 66 1008.7
20200331230005 37 33 1.0 2.0 0.00 0.00 0.00 66 1008.7
20200331225504 37 46 0.0 2.0 0.00 0.00 0.00 65 1008.8
20200331225004 37 0 0.0 1.0 0.00 0.00 0.00 65 1008.9
20200331224504 37 0 0.0 1.0 0.00 0.00 0.00 65 1009.0
20200331224004 38 48 0.0 1.0 0.00 0.00 0.00 65 1008.8
20200331223503 38 23 0.0 1.0 0.00 0.00 0.00 65 1008.6
20200331223005 38 0 0.0 1.0 0.00 0.00 0.00 65 1008.5
20200331222504 38 35 0.0 2.0 0.00 0.00 0.00 65 1008.8
20200331222004 39 55 1.0 2.0 0.00 0.00 0.00 65 1008.8
20200331221505 39 64 1.0 2.0 0.00 0.00 0.00 65 1008.9
20200331221003 38 65 0.0 2.0 0.00 0.00 0.00 64 1008.7
20200331220504 38 0 0.0 1.0 0.00 0.00 0.00 64 1008.6
20200331220005 38 0 0.0 0.0 0.00 0.00 0.00 63 1009.0
20200331215504 38 0 0.0 0.0 0.00 0.00 0.00 63 1008.9
20200331215004 38 0 0.0 0.0 0.00 0.00 0.00 63 1009.2
20200331214505 39 0 0.0 0.0 0.00 0.00 0.00 62 1008.9
20200331214004 40 15 0.0 2.0 0.00 0.00 0.00 63 1009.1
20200331213505 40 38 1.0 2.0 0.00 0.00 0.00 63 1008.9
20200331213005 40 52 1.0 2.0 0.00 0.00 0.00 63 1009.0
20200331212504 40 55 1.0 2.0 0.00 0.00 0.00 62 1009.0
20200331212003 41 57 1.0 3.0 0.00 0.00 0.00 62 1009.0
20200331211505 41 51 1.0 3.0 0.00 0.00 0.00 62 1009.1
20200331211004 41 56 2.0 3.0 0.00 0.00 0.00 62 1009.0
20200331210503 41 59 1.0 3.0 0.00 0.00 0.00 62 1009.4
20200331210005 41 57 1.0 2.0 0.00 0.00 0.00 61 1008.9
20200331205504 42 60 1.0 2.0 0.00 0.00 0.00 61 1009.2
20200331205003 42 48 1.0 2.0 0.00 0.00 0.00 61 1009.0
20200331204505 42 39 1.0 2.0 0.00 0.00 0.00 61 1009.1
20200331204004 42 52 1.0 2.0 0.00 0.00 0.00 61 1009.3
20200331203503 42 48 1.0 3.0 0.00 0.00 0.00 61 1009.3
20200331203004 42 44 2.0 3.0 0.00 0.00 0.00 61 1009.3
20200331202504 42 52 2.0 3.0 0.00 0.00 0.00 61 1009.4
20200331202003 42 51 1.0 3.0 0.00 0.00 0.00 61 1009.2
20200331201505 42 39 0.0 3.0 0.00 0.00 0.00 60 1009.3
20200331201004 42 33 0.0 2.0 0.00 0.00 0.00 60 1009.6
20200331200503 43 39 0.0 2.0 0.00 0.00 0.00 60 1009.3
20200331200005 43 49 1.0 3.0 0.00 0.00 0.00 60 1009.3
20200331195503 44 55 2.0 3.0 0.00 0.00 0.00 60 1009.3
20200331195004 44 55 3.0 4.0 0.00 0.00 0.00 60 1009.3
20200331194504 44 54 3.0 4.0 0.00 0.00 0.00 59 1009.4
20200331194004 44 51 3.0 4.0 0.00 0.00 0.00 59 1009.4
20200331193504 45 50 2.0 4.0 0.00 0.00 0.00 58 1009.4
20200331193004 45 40 3.0 5.0 0.00 0.00 0.00 57 1009.0
20200331192504 45 32 3.0 5.0 0.00 0.00 0.00 57 1009.3
20200331192003 45 38 3.0 5.0 0.00 0.00 0.00 56 1009.3
20200331191505 46 40 3.0 6.0 0.00 0.00 0.00 51 1009.3
20200331191004 46 58 3.0 6.0 0.00 0.00 0.00 51 1009.1
20200331190503 46 70 3.0 5.0 0.00 0.00 0.00 51 1009.3
20200331190005 46 54 4.0 5.0 0.00 0.00 0.00 50 1009.2
20200331185504 46 48 4.0 7.0 0.00 0.00 0.00 50 1009.3
20200331185004 47 52 4.0 8.0 0.00 0.00 0.00 50 1009.1
20200331184505 47 56 4.0 8.0 0.00 0.00 0.00 50 1009.1
20200331184003 47 66 4.0 8.0 0.00 0.00 0.00 50 1009.2
20200331183504 47 66 4.0 8.0 0.00 0.00 0.00 49 1009.1
20200331183005 48 55 5.0 9.0 0.00 0.00 0.00 48 1009.2
20200331182504 48 49 5.0 9.0 0.00 0.00 0.00 47 1009.2
20200331182003 48 45 6.0 10.0 0.00 0.00 0.00 46 1009.0
20200331181505 49 38 6.0 10.0 0.00 0.00 0.00 46 1009.3
20200331181003 49 55 7.0 13.0 0.00 0.00 0.00 45 1009.5
20200331180504 49 60 7.0 13.0 0.00 0.00 0.00 45 1009.1
20200331180005 49 49 7.0 12.0 0.00 0.00 0.00 45 1009.2
20200331175504 49 55 7.0 12.0 0.00 0.00 0.00 45 1009.2
20200331175003 49 43 6.0 11.0 0.00 0.00 0.00 45 1009.3
20200331174505 49 42 6.0 11.0 0.00 0.00 0.00 44 1009.3
20200331174004 49 63 6.0 11.0 0.00 0.00 0.00 44 1009.1
20200331173503 49 55 6.0 11.0 0.00 0.00 0.00 44 1009.2
20200331173005 49 41 8.0 15.0 0.00 0.00 0.00 43 1009.3
20200331172504 50 51 8.0 15.0 0.00 0.00 0.00 43 1009.3
20200331172003 50 50 7.0 15.0 0.00 0.00 0.00 43 1009.1
20200331171505 50 43 7.0 12.0 0.00 0.00 0.00 43 1009.3
20200331171004 50 53 7.0 14.0 0.00 0.00 0.00 43 1009.3
20200331170503 50 71 8.0 16.0 0.00 0.00 0.00 43 1009.1
20200331170005 51 69 8.0 16.0 0.00 0.00 0.00 42 1009.4
20200331165504 51 47 7.0 12.0 0.00 0.00 0.00 42 1009.1
20200331165004 50 49 7.0 12.0 0.00 0.00 0.00 43 1009.6
20200331164506 50 44 7.0 12.0 0.00 0.00 0.00 43 1009.4
20200331164004 50 28 6.0 12.0 0.00 0.00 0.00 43 1009.4
20200331163503 51 34 5.0 8.0 0.00 0.00 0.00 43 1009.4
20200331163005 51 42 6.0 13.0 0.00 0.00 0.00 44 1009.1
20200331162503 50 33 7.0 13.0 0.00 0.00 0.00 44 1009.4
20200331162003 51 39 7.0 12.0 0.00 0.00 0.00 43 1009.4
20200331161506 51 51 7.0 13.0 0.00 0.00 0.00 43 1009.5
20200331161003 51 43 8.0 13.0 0.00 0.00 0.00 44 1009.6
20200331160504 51 27 8.0 15.0 0.00 0.00 0.00 44 1009.5
20200331160005 51 30 8.0 15.0 0.00 0.00 0.00 43 1009.5
20200331155503 51 45 7.0 15.0 0.00 0.00 0.00 44 1009.5
20200331155004 50 50 7.0 12.0 0.00 0.00 0.00 45 1009.5
20200331154505 50 57 7.0 12.0 0.00 0.00 0.00 44 1009.8
20200331154003 51 70 5.0 11.0 0.00 0.00 0.00 43 1009.8
20200331153504 51 83 4.0 9.0 0.00 0.00 0.00 43 1009.7
20200331153005 51 63 5.0 10.0 0.00 0.00 0.00 44 1009.9
20200331152503 51 30 6.0 10.0 0.00 0.00 0.00 46 1009.7
20200331152003 50 18 7.0 12.0 0.00 0.00 0.00 46 1009.9
20200331151505 50 27 7.0 12.0 0.00 0.00 0.00 46 1009.9
20200331151004 50 41 6.0 12.0 0.00 0.00 0.00 46 1010.1
20200331150503 50 49 6.0 11.0 0.00 0.00 0.00 45 1010.2
20200331150005 51 58 6.0 11.0 0.00 0.00 0.00 44 1010.0
20200331145504 51 59 6.0 11.0 0.00 0.00 0.00 43 1009.9
20200331145004 51 65 6.0 11.0 0.00 0.00 0.00 47 1010.3
20200331144505 50 59 7.0 12.0 0.00 0.00 0.00 48 1010.2
20200331144004 50 42 7.0 12.0 0.00 0.00 0.00 47 1010.3
20200331143503 50 40 6.0 11.0 0.00 0.00 0.00 47 1010.4
20200331143005 50 37 6.0 11.0 0.00 0.00 0.00 47 1010.3
20200331142504 50 33 6.0 11.0 0.00 0.00 0.00 48 1010.4
20200331142003 49 22 6.0 11.0 0.00 0.00 0.00 47 1010.5
20200331141504 49 48 6.0 11.0 0.00 0.00 0.00 47 1010.6
20200331141004 50 53 7.0 11.0 0.00 0.00 0.00 47 1010.6
20200331140504 49 45 7.0 12.0 0.00 0.00 0.00 48 1010.7
20200331140004 49 51 7.0 12.0 0.00 0.00 0.00 47 1010.6
20200331135503 49 21 7.0 12.0 0.00 0.00 0.00 47 1011.0
20200331135004 49 27 7.0 12.0 0.00 0.00 0.00 46 1010.8
20200331134504 50 46 7.0 12.0 0.00 0.00 0.00 47 1010.9
20200331134004 49 37 7.0 11.0 0.00 0.00 0.00 47 1011.0
20200331133504 49 56 7.0 15.0 0.00 0.00 0.00 46 1011.0
20200331133004 49 68 8.0 15.0 0.00 0.00 0.00 45 1011.1
20200331132504 50 65 8.0 15.0 0.00 0.00 0.00 44 1011.3
20200331132003 49 62 7.0 15.0 0.00 0.00 0.00 45 1011.2
20200331131505 50 72 6.0 11.0 0.00 0.00 0.00 44 1011.0
20200331131004 51 65 6.0 11.0 0.00 0.00 0.00 46 1011.3
20200331130504 49 42 7.0 12.0 0.00 0.00 0.00 46 1010.9
20200331130005 49 49 6.0 12.0 0.00 0.00 0.00 46 1011.2
20200331125504 50 55 5.0 11.0 0.00 0.00 0.00 48 1011.2
20200331125003 49 45 7.0 12.0 0.00 0.00 0.00 46 1011.2
20200331124504 49 54 8.0 12.0 0.00 0.00 0.00 49 1011.5
20200331124004 49 72 7.0 11.0 0.00 0.00 0.00 50 1011.5
20200331123503 48 79 6.0 13.0 0.00 0.00 0.00 51 1011.6
20200331123005 48 56 6.0 13.0 0.00 0.00 0.00 51 1011.8
20200331122503 48 35 7.0 15.0 0.00 0.00 0.00 51 1011.5
20200331122004 47 40 8.0 15.0 0.00 0.00 0.00 52 1011.4
20200331121505 47 33 9.0 14.0 0.00 0.00 0.00 53 1011.7
20200331121004 47 13 8.0 13.0 0.00 0.00 0.00 53 1011.7
20200331120504 47 17 7.0 11.0 0.00 0.00 0.00 55 1011.5
20200331120005 47 37 7.0 12.0 0.00 0.00 0.00 54 1011.6
20200331115504 47 36 7.0 13.0 0.00 0.00 0.00 56 1011.7
20200331115003 47 37 7.0 13.0 0.00 0.00 0.00 55 1011.8
20200331114505 47 53 7.0 16.0 0.00 0.00 0.00 56 1011.8
20200331114004 47 57 7.0 16.0 0.00 0.00 0.00 56 1011.9
20200331113503 46 49 7.0 13.0 0.00 0.00 0.00 56 1011.6
20200331113005 46 47 8.0 15.0 0.00 0.00 0.00 57 1011.6
20200331112504 46 54 8.0 15.0 0.00 0.00 0.00 57 1011.5
20200331112003 46 40 8.0 15.0 0.00 0.00 0.00 57 1011.6
20200331111505 46 24 8.0 13.0 0.00 0.00 0.00 58 1012.0
20200331111004 46 31 7.0 12.0 0.00 0.00 0.00 59 1011.8
20200331110503 45 44 7.0 12.0 0.00 0.00 0.00 62 1011.8
20200331110005 45 37 9.0 16.0 0.00 0.00 0.00 62 1011.9
20200331105503 45 35 9.0 16.0 0.00 0.00 0.00 62 1011.9
20200331105004 45 39 8.0 15.0 0.00 0.00 0.00 62 1011.9
20200331104505 45 50 7.0 15.0 0.00 0.00 0.00 62 1012.3
20200331104004 46 64 8.0 15.0 0.00 0.00 0.00 59 1012.0
20200331103503 45 48 8.0 15.0 0.00 0.00 0.00 62 1012.1
20200331103005 45 33 7.0 11.0 0.00 0.00 0.00 62 1011.9
20200331102504 46 49 7.0 11.0 0.00 0.00 0.00 60 1012.1
20200331102003 45 35 7.0 15.0 0.00 0.00 0.00 64 1011.8
20200331101505 45 35 8.0 16.0 0.00 0.00 0.00 64 1012.0
20200331101004 45 49 7.0 16.0 0.00 0.00 0.00 65 1011.8
20200331100503 44 51 7.0 15.0 0.00 0.00 0.00 65 1012.4
20200331100005 44 53 9.0 15.0 0.00 0.00 0.00 65 1012.1
20200331095503 44 45 10.0 19.0 0.00 0.00 0.00 65 1012.1
20200331095004 44 26 9.0 19.0 0.00 0.00 0.00 64 1012.4
20200331094505 45 67 8.0 15.0 0.00 0.00 0.00 66 1012.3
20200331094003 44 61 8.0 14.0 0.00 0.00 0.00 67 1012.5
20200331093503 44 41 7.0 17.0 0.00 0.00 0.00 68 1012.6
20200331093005 43 43 9.0 17.0 0.00 0.00 0.00 68 1012.5
20200331092503 43 56 9.0 17.0 0.00 0.00 0.00 69 1012.6
20200331092004 43 43 9.0 15.0 0.00 0.00 0.00 69 1012.3
20200331091505 43 27 9.0 15.0 0.00 0.00 0.00 69 1012.3
20200331091005 43 37 9.0 16.0 0.00 0.00 0.00 68 1012.2
20200331090504 43 37 9.0 16.0 0.00 0.00 0.00 68 1012.4
20200331090005 43 37 9.0 14.0 0.00 0.00 0.00 68 1012.5
20200331085503 43 39 10.0 15.0 0.00 0.00 0.00 68 1012.5
20200331085004 43 44 9.0 15.0 0.00 0.00 0.00 69 1012.4
20200331084504 43 67 9.0 15.0 0.00 0.00 0.00 70 1012.3
20200331084004 42 55 10.0 17.0 0.00 0.00 0.00 70 1012.4
20200331083503 42 46 10.0 17.0 0.00 0.00 0.00 69 1012.6
20200331083005 42 52 9.0 18.0 0.00 0.00 0.00 68 1012.4
20200331082504 42 51 11.0 20.0 0.00 0.00 0.00 68 1012.2
20200331082003 42 40 12.0 20.0 0.00 0.00 0.00 69 1012.3
20200331081505 42 43 11.0 17.0 0.00 0.00 0.00 70 1012.3
20200331081004 42 69 9.0 17.0 0.00 0.00 0.00 70 1012.3
20200331080503 42 58 9.0 15.0 0.00 0.00 0.00 71 1012.4
20200331080005 42 54 9.0 15.0 0.00 0.00 0.00 71 1012.5
20200331075504 42 34 8.0 14.0 0.00 0.00 0.00 71 1012.2
20200331075003 42 28 8.0 13.0 0.00 0.00 0.00 72 1012.1
20200331074505 42 47 8.0 14.0 0.00 0.00 0.00 72 1012.1
20200331074003 42 63 8.0 14.0 0.00 0.00 0.00 73 1012.3
20200331073504 42 51 8.0 14.0 0.00 0.00 0.00 73 1012.2
20200331073004 41 57 8.0 13.0 0.00 0.00 0.00 73 1012.1
20200331072504 41 63 7.0 13.0 0.00 0.00 0.00 74 1012.3
20200331072004 41 35 7.0 14.0 0.00 0.00 0.00 75 1012.2
20200331071504 40 30 7.0 14.0 0.00 0.00 0.00 75 1012.4
20200331071003 40 28 7.0 12.0 0.00 0.00 0.00 75 1012.2
20200331070504 41 36 7.0 11.0 0.00 0.00 0.00 76 1012.2
20200331070005 40 59 6.0 11.0 0.00 0.00 0.00 77 1012.4
20200331065504 40 70 7.0 11.0 0.00 0.00 0.00 77 1012.1
20200331065004 40 68 7.0 11.0 0.00 0.00 0.00 78 1012.0
20200331064505 40 68 6.0 10.0 0.00 0.00 0.00 79 1012.2
20200331064003 39 66 6.0 10.0 0.00 0.00 0.00 80 1012.4
20200331063504 39 52 5.0 8.0 0.00 0.00 0.00 80 1012.4
20200331063005 39 38 4.0 8.0 0.00 0.00 0.00 80 1012.2
20200331062503 39 45 5.0 9.0 0.00 0.00 0.00 80 1012.4
20200331062004 39 38 5.0 9.0 0.00 0.00 0.00 80 1012.3
20200331061504 38 23 4.0 8.0 0.00 0.00 0.00 80 1012.3
20200331061004 38 34 4.0 8.0 0.00 0.00 0.00 79 1012.2
20200331060504 39 40 4.0 8.0 0.00 0.00 0.00 79 1012.0
20200331060005 39 46 4.0 8.0 0.00 0.00 0.00 79 1011.8
20200331055503 39 48 4.0 6.0 0.00 0.00 0.00 79 1011.9
20200331055003 39 56 3.0 6.0 0.00 0.00 0.00 79 1011.9
20200331054505 39 47 3.0 8.0 0.00 0.00 0.00 79 1011.7
20200331054004 39 19 4.0 8.0 0.00 0.00 0.00 79 1011.9
20200331053503 39 34 5.0 8.0 0.00 0.00 0.00 79 1011.7
20200331053005 39 55 6.0 10.0 0.00 0.00 0.00 79 1011.6
20200331052503 39 39 6.0 10.0 0.00 0.00 0.00 79 1011.9
20200331052004 39 46 6.0 10.0 0.00 0.00 0.00 78 1011.6
20200331051504 39 60 6.0 9.0 0.00 0.00 0.00 78 1011.5
20200331051004 39 11 6.0 9.0 0.00 0.00 0.00 78 1011.5
20200331050503 39 21 6.0 9.0 0.00 0.00 0.00 77 1011.4
20200331050005 39 50 7.0 14.0 0.00 0.00 0.00 77 1011.5
20200331045504 39 53 7.0 14.0 0.00 0.00 0.00 77 1011.3
20200331045003 39 51 7.0 14.0 0.00 0.00 0.00 78 1011.4
20200331044505 39 52 7.0 12.0 0.00 0.00 0.00 78 1011.4
20200331044003 39 42 6.0 11.0 0.00 0.00 0.00 78 1011.4
20200331043504 39 30 6.0 11.0 0.00 0.00 0.00 78 1011.4
20200331043007 39 36 5.0 10.0 0.00 0.00 0.00 77 1011.4
20200331042504 39 56 5.0 9.0 0.00 0.00 0.00 77 1011.5
20200331042004 39 45 5.0 9.0 0.00 0.00 0.00 77 1011.6
20200331041504 39 32 5.0 8.0 0.00 0.00 0.00 77 1011.5
20200331041004 39 42 5.0 8.0 0.00 0.00 0.00 77 1011.5
20200331040503 39 47 5.0 8.0 0.00 0.00 0.00 76 1011.5
20200331040005 40 43 5.0 8.0 0.00 0.00 0.00 76 1011.4
20200331035504 40 50 6.0 10.0 0.00 0.00 0.00 75 1011.5
20200331035004 40 59 6.0 12.0 0.00 0.00 0.00 75 1011.6
20200331034505 40 60 7.0 12.0 0.00 0.00 0.00 75 1011.4
20200331034004 40 48 7.0 13.0 0.00 0.00 0.00 74 1011.7
20200331033504 40 42 8.0 13.0 0.00 0.00 0.00 74 1011.5
20200331033004 41 49 8.0 13.0 0.00 0.00 0.00 75 1011.6
20200331032504 41 39 8.0 13.0 0.00 0.00 0.00 75 1011.6
20200331032003 41 33 7.0 12.0 0.00 0.00 0.00 75 1011.6
20200331031505 41 45 6.0 11.0 0.00 0.00 0.00 75 1011.5
20200331031003 41 57 6.0 12.0 0.00 0.00 0.00 74 1011.5
20200331030503 42 63 7.0 17.0 0.00 0.00 0.00 72 1011.5
20200331030005 42 51 9.0 17.0 0.00 0.00 0.00 72 1011.5
20200331025504 42 42 8.0 15.0 0.00 0.00 0.00 72 1011.4
20200331025004 42 39 7.0 13.0 0.00 0.00 0.00 72 1011.5
20200331024505 42 36 8.0 13.0 0.00 0.00 0.00 72 1011.6
20200331024003 43 52 7.0 13.0 0.00 0.00 0.00 72 1011.5
20200331023504 43 52 7.0 13.0 0.00 0.00 0.00 72 1011.6
20200331023005 43 38 7.0 15.0 0.00 0.00 0.00 72 1011.7
20200331022503 43 36 8.0 15.0 0.00 0.00 0.00 72 1011.6
20200331022004 43 37 8.0 15.0 0.00 0.00 0.00 73 1011.5
20200331021505 43 36 8.0 13.0 0.00 0.00 0.00 73 1011.6
20200331021003 43 43 7.0 13.0 0.00 0.00 0.00 72 1011.7
20200331020504 43 35 7.0 13.0 0.00 0.00 0.00 72 1011.8
20200331020005 43 38 8.0 13.0 0.00 0.00 0.00 72 1011.8